| time (UTC) | temp F | wind direction | speed MPH | gust MPH | rain 1hr in | rain 24hr in | rain mn in | humidity % | barometer mb |
| 20260508130504 | 66 | 295 | 3.0 | 8.0 | 0.00 | 0.70 | 0.00 | 53 | 1014.3 |
| 20260508130004 | 66 | 293 | 3.0 | 8.0 | 0.00 | 0.70 | 0.00 | 52 | 1014.2 |
| 20260508125504 | 66 | 287 | 3.0 | 8.0 | 0.00 | 0.70 | 0.00 | 52 | 1014.2 |
| 20260508125004 | 66 | 278 | 3.0 | 7.0 | 0.00 | 0.70 | 0.00 | 53 | 1014.2 |
| 20260508124504 | 66 | 279 | 3.0 | 10.0 | 0.00 | 0.70 | 0.00 | 53 | 1014.2 |
| 20260508124004 | 65 | 295 | 4.0 | 10.0 | 0.00 | 0.70 | 0.00 | 51 | 1014.1 |
| 20260508123504 | 65 | 305 | 4.0 | 10.0 | 0.00 | 0.70 | 0.00 | 52 | 1014.1 |
| 20260508123004 | 66 | 299 | 3.0 | 8.0 | 0.00 | 0.70 | 0.00 | 53 | 1014.1 |
| 20260508122524 | 65 | 296 | 4.0 | 9.0 | 0.00 | 0.70 | 0.00 | 49 | 1014.2 |
| 20260508122004 | 63 | 289 | 3.0 | 9.0 | 0.00 | 0.70 | 0.00 | 56 | 1014.2 |
| 20260508121504 | 64 | 287 | 3.0 | 8.0 | 0.00 | 0.70 | 0.00 | 59 | 1014.1 |
| 20260508121004 | 64 | 286 | 2.0 | 6.0 | 0.00 | 0.70 | 0.00 | 57 | 1014.1 |
| 20260508120504 | 63 | 284 | 2.0 | 4.0 | 0.00 | 0.70 | 0.00 | 58 | 1014.0 |
| 20260508120024 | 63 | 57 | 1.0 | 6.0 | 0.00 | 0.70 | 0.00 | 68 | 1014.1 |
| 20260508115525 | 62 | 40 | 1.0 | 6.0 | 0.00 | 0.70 | 0.00 | 67 | 1014.2 |
| 20260508115004 | 62 | 251 | 1.0 | 3.0 | 0.00 | 0.70 | 0.00 | 71 | 1014.2 |
| 20260508114504 | 62 | 250 | 1.0 | 3.0 | 0.00 | 0.70 | 0.00 | 72 | 1014.2 |
| 20260508114003 | 62 | 254 | 1.0 | 3.0 | 0.00 | 0.70 | 0.00 | 71 | 1014.2 |
| 20260508113504 | 62 | 274 | 1.0 | 3.0 | 0.00 | 0.70 | 0.00 | 73 | 1014.2 |
| 20260508113004 | 62 | 256 | 1.0 | 3.0 | 0.00 | 0.70 | 0.00 | 69 | 1014.2 |
| 20260508112504 | 62 | 245 | 1.0 | 3.0 | 0.00 | 0.70 | 0.00 | 69 | 1014.1 |
| 20260508112003 | 62 | 248 | 1.0 | 2.0 | 0.00 | 0.70 | 0.00 | 66 | 1014.0 |
| 20260508111504 | 63 | 250 | 1.0 | 3.0 | 0.00 | 0.70 | 0.00 | 74 | 1014.1 |
| 20260508111003 | 62 | 251 | 1.0 | 3.0 | 0.00 | 0.70 | 0.00 | 75 | 1014.3 |
| 20260508110503 | 61 | 254 | 1.0 | 2.0 | 0.00 | 0.70 | 0.00 | 71 | 1014.2 |
| 20260508110025 | 61 | 252 | 1.0 | 3.0 | 0.00 | 0.70 | 0.00 | 70 | 1014.2 |
| 20260508105503 | 61 | 259 | 1.0 | 3.0 | 0.00 | 0.70 | 0.00 | 74 | 1014.6 |
| 20260508105004 | 62 | 256 | 1.0 | 2.0 | 0.00 | 0.70 | 0.00 | 76 | 1014.5 |
| 20260508104504 | 62 | 245 | 1.0 | 2.0 | 0.00 | 0.70 | 0.00 | 71 | 1014.3 |
| 20260508104003 | 61 | 197 | 1.0 | 3.0 | 0.00 | 0.70 | 0.00 | 70 | 1014.6 |
| 20260508103503 | 61 | 197 | 1.0 | 3.0 | 0.00 | 0.70 | 0.00 | 72 | 1014.6 |
| 20260508103004 | 60 | 223 | 1.0 | 2.0 | 0.00 | 0.70 | 0.00 | 73 | 1014.7 |
| 20260508102503 | 61 | 239 | 0.0 | 2.0 | 0.00 | 0.70 | 0.00 | 72 | 1014.9 |
| 20260508102003 | 60 | 225 | 0.0 | 2.0 | 0.00 | 0.70 | 0.00 | 75 | 1015.0 |
| 20260508101503 | 59 | 181 | 1.0 | 2.0 | 0.00 | 0.70 | 0.00 | 76 | 1015.2 |
| 20260508101004 | 59 | 216 | 1.0 | 3.0 | 0.00 | 0.70 | 0.00 | 72 | 1015.0 |
| 20260508100525 | 59 | 277 | 1.0 | 4.0 | 0.00 | 0.70 | 0.00 | 78 | 1015.1 |
| 20260508100004 | 58 | 279 | 1.0 | 4.0 | 0.00 | 0.70 | 0.00 | 80 | 1014.9 |
| 20260508095503 | 59 | 244 | 1.0 | 3.0 | 0.00 | 0.70 | 0.00 | 84 | 1015.1 |
| 20260508095003 | 58 | 258 | 1.0 | 3.0 | 0.00 | 0.70 | 0.00 | 83 | 1015.3 |
| 20260508094503 | 58 | 258 | 1.0 | 3.0 | 0.00 | 0.70 | 0.00 | 86 | 1015.0 |
| 20260508094025 | 58 | 273 | 1.0 | 4.0 | 0.00 | 0.70 | 0.00 | 85 | 1015.2 |
| 20260508093504 | 56 | 301 | 1.0 | 4.0 | 0.00 | 0.70 | 0.00 | 86 | 1015.0 |
| 20260508093025 | 55 | 289 | 1.0 | 3.0 | 0.00 | 0.70 | 0.00 | 89 | 1015.1 |
| 20260508092503 | 56 | 245 | 0.0 | 2.0 | 0.00 | 0.70 | 0.00 | 90 | 1015.1 |
| 20260508092003 | 56 | 235 | 0.0 | 1.0 | 0.00 | 0.70 | 0.00 | 90 | 1014.8 |
| 20260508091504 | 56 | 210 | 0.0 | 2.0 | 0.00 | 0.70 | 0.00 | 91 | 1014.8 |
| 20260508091003 | 55 | 75 | 1.0 | 3.0 | 0.00 | 0.70 | 0.00 | 91 | 1014.8 |
| 20260508090503 | 55 | 235 | 1.0 | 3.0 | 0.00 | 0.70 | 0.00 | 90 | 1014.7 |
| 20260508090004 | 55 | 212 | 1.0 | 4.0 | 0.00 | 0.70 | 0.00 | 89 | 1014.6 |
| 20260508085503 | 54 | 67 | 1.0 | 4.0 | 0.00 | 0.70 | 0.00 | 89 | 1014.7 |
| 20260508085004 | 54 | 23 | 1.0 | 3.0 | 0.00 | 0.70 | 0.00 | 89 | 1014.6 |
| 20260508084503 | 55 | 28 | 1.0 | 3.0 | 0.00 | 0.70 | 0.00 | 93 | 1014.3 |
| 20260508084003 | 54 | 264 | 1.0 | 3.0 | 0.00 | 0.70 | 0.00 | 95 | 1014.3 |
| 20260508083503 | 53 | 294 | 1.0 | 4.0 | 0.00 | 0.70 | 0.00 | 97 | 1014.2 |
| 20260508083003 | 52 | 322 | 1.0 | 4.0 | 0.00 | 0.70 | 0.00 | 100 | 1014.1 |
| 20260508082504 | 53 | 253 | 1.0 | 2.0 | 0.00 | 0.70 | 0.00 | 100 | 1014.0 |
| 20260508082003 | 52 | 253 | 0.0 | 2.0 | 0.00 | 0.70 | 0.00 | 100 | 1014.1 |
| 20260508081504 | 53 | 240 | 0.0 | 2.0 | 0.00 | 0.70 | 0.00 | 100 | 1014.2 |
| 20260508081004 | 52 | 223 | 0.0 | 2.0 | 0.00 | 0.70 | 0.00 | 100 | 1014.1 |
| 20260508080503 | 52 | 103 | 1.0 | 4.0 | 0.00 | 0.70 | 0.00 | 100 | 1014.1 |
| 20260508080004 | 51 | 307 | 1.0 | 4.0 | 0.00 | 0.70 | 0.00 | 100 | 1014.2 |
| 20260508075503 | 52 | 248 | 0.0 | 2.0 | 0.00 | 0.70 | 0.00 | 100 | 1014.6 |
| 20260508075024 | 51 | 241 | 0.0 | 2.0 | 0.00 | 0.70 | 0.00 | 100 | 1014.2 |
| 20260508074503 | 50 | 226 | 0.0 | 1.0 | 0.00 | 0.70 | 0.00 | 100 | 1014.2 |
| 20260508074024 | 51 | 250 | 0.0 | 3.0 | 0.00 | 0.70 | 0.00 | 100 | 1014.3 |
| 20260508073503 | 50 | 247 | 1.0 | 3.0 | 0.00 | 0.70 | 0.00 | 100 | 1014.3 |
| 20260508073003 | 50 | 243 | 1.0 | 2.0 | 0.00 | 0.70 | 0.00 | 100 | 1014.3 |
| 20260508072504 | 50 | 248 | 1.0 | 2.0 | 0.00 | 0.70 | 0.00 | 100 | 1014.3 |
| 20260508072003 | 50 | 233 | 0.0 | 2.0 | 0.00 | 0.70 | 0.00 | 100 | 1014.3 |
| 20260508071503 | 49 | 240 | 1.0 | 2.0 | 0.00 | 0.70 | 0.00 | 100 | 1014.2 |
| 20260508071004 | 49 | 262 | 0.0 | 2.0 | 0.00 | 0.70 | 0.00 | 100 | 1014.2 |
| 20260508070503 | 49 | 234 | 0.0 | 1.0 | 0.00 | 0.70 | 0.00 | 100 | 1014.3 |
| 20260508070004 | 48 | 174 | 0.0 | 1.0 | 0.00 | 0.70 | 0.00 | 100 | 1014.5 |
| 20260508065503 | 48 | 229 | 0.0 | 1.0 | 0.00 | 0.70 | 0.00 | 100 | 1014.6 |
| 20260508065003 | 48 | 169 | 1.0 | 2.0 | 0.00 | 0.70 | 0.00 | 100 | 1014.3 |
| 20260508064504 | 48 | 160 | 0.0 | 2.0 | 0.00 | 0.70 | 0.00 | 100 | 1014.3 |
| 20260508064003 | 48 | 346 | 0.0 | 2.0 | 0.00 | 0.70 | 0.00 | 100 | 1014.3 |
| 20260508063503 | 48 | 19 | 1.0 | 2.0 | 0.00 | 0.70 | 0.00 | 100 | 1014.2 |
| 20260508063003 | 49 | 186 | 0.0 | 2.0 | 0.00 | 0.70 | 0.00 | 100 | 1014.5 |
| 20260508062503 | 48 | 235 | 0.0 | 1.0 | 0.00 | 0.70 | 0.00 | 100 | 1014.3 |
| 20260508062024 | 49 | 241 | 0.0 | 1.0 | 0.00 | 0.70 | 0.00 | 100 | 1014.1 |
| 20260508061503 | 49 | 237 | 0.0 | 1.0 | 0.00 | 0.70 | 0.00 | 100 | 1014.2 |
| 20260508061003 | 47 | 236 | 0.0 | 1.0 | 0.00 | 0.70 | 0.00 | 100 | 1014.1 |
| 20260508060503 | 47 | 235 | 0.0 | 1.0 | 0.00 | 0.70 | 0.00 | 100 | 1014.0 |
| 20260508060003 | 47 | 231 | 0.0 | 1.0 | 0.00 | 0.70 | 0.00 | 100 | 1013.9 |
| 20260508055504 | 47 | 233 | 0.0 | 1.0 | 0.00 | 0.70 | 0.00 | 100 | 1014.1 |
| 20260508055003 | 47 | 235 | 0.0 | 1.0 | 0.00 | 0.70 | 0.00 | 100 | 1013.9 |
| 20260508054504 | 47 | 230 | 0.0 | 1.0 | 0.00 | 0.70 | 0.00 | 100 | 1013.9 |
| 20260508054003 | 46 | 230 | 0.0 | 1.0 | 0.00 | 0.70 | 0.00 | 100 | 1013.9 |
| 20260508053503 | 46 | 222 | 0.0 | 1.0 | 0.00 | 0.70 | 0.00 | 100 | 1013.8 |
| 20260508053003 | 46 | 222 | 0.0 | 1.0 | 0.00 | 0.70 | 0.00 | 100 | 1013.6 |
| 20260508052503 | 47 | 0 | 0.0 | 0.0 | 0.00 | 0.70 | 0.00 | 100 | 1013.9 |
| 20260508052024 | 47 | 0 | 0.0 | 0.0 | 0.00 | 0.70 | 0.00 | 100 | 1013.9 |
| 20260508051503 | 47 | 230 | 0.0 | 1.0 | 0.00 | 0.70 | 0.00 | 100 | 1013.7 |
| 20260508051003 | 46 | 233 | 0.0 | 1.0 | 0.00 | 0.70 | 0.00 | 100 | 1013.7 |
| 20260508050503 | 47 | 235 | 0.0 | 1.0 | 0.00 | 0.70 | 0.00 | 100 | 1013.6 |
| 20260508050004 | 47 | 231 | 0.0 | 1.0 | 0.00 | 0.70 | 0.00 | 100 | 1013.6 |
| 20260508045503 | 47 | 0 | 0.0 | 0.0 | 0.00 | 0.70 | 0.00 | 100 | 1013.6 |
| 20260508045025 | 47 | 0 | 0.0 | 0.0 | 0.00 | 0.70 | 0.00 | 100 | 1013.7 |
| 20260508044503 | 47 | 0 | 0.0 | 0.0 | 0.00 | 0.70 | 0.00 | 100 | 1013.5 |
| 20260508044003 | 47 | 223 | 0.0 | 1.0 | 0.00 | 0.70 | 0.00 | 100 | 1013.5 |
| 20260508043504 | 47 | 225 | 0.0 | 1.0 | 0.00 | 0.70 | 0.00 | 100 | 1013.5 |
| 20260508043003 | 46 | 224 | 0.0 | 1.0 | 0.00 | 0.70 | 0.00 | 100 | 1013.6 |
| 20260508042524 | 46 | 224 | 0.0 | 1.0 | 0.00 | 0.70 | 0.00 | 100 | 1013.5 |
| 20260508042003 | 47 | 226 | 0.0 | 1.0 | 0.00 | 0.70 | 0.00 | 100 | 1013.6 |
| 20260508041504 | 47 | 224 | 0.0 | 1.0 | 0.00 | 0.70 | 0.00 | 100 | 1013.7 |
| 20260508041003 | 47 | 223 | 0.0 | 1.0 | 0.00 | 0.70 | 0.00 | 100 | 1013.7 |
| 20260508040503 | 47 | 223 | 1.0 | 1.0 | 0.00 | 0.70 | 0.00 | 100 | 1013.6 |
| 20260508040004 | 47 | 225 | 1.0 | 1.0 | 0.00 | 0.70 | 0.00 | 100 | 1013.7 |
| 20260508035503 | 47 | 224 | 1.0 | 1.0 | 0.00 | 0.70 | 0.00 | 100 | 1013.7 |
| 20260508035024 | 47 | 223 | 0.0 | 1.0 | 0.00 | 0.70 | 0.00 | 100 | 1013.8 |
| 20260508034503 | 47 | 229 | 0.0 | 1.0 | 0.00 | 0.70 | 0.00 | 100 | 1013.7 |
| 20260508034003 | 47 | 222 | 0.0 | 1.0 | 0.00 | 0.70 | 0.00 | 100 | 1013.9 |
| 20260508033503 | 47 | 222 | 0.0 | 1.0 | 0.00 | 0.70 | 0.00 | 100 | 1013.8 |
| 20260508033003 | 47 | 225 | 0.0 | 1.0 | 0.00 | 0.70 | 0.00 | 100 | 1014.0 |
| 20260508032503 | 47 | 225 | 0.0 | 1.0 | 0.00 | 0.70 | 0.00 | 100 | 1014.0 |
| 20260508032024 | 47 | 226 | 0.0 | 1.0 | 0.00 | 0.70 | 0.00 | 100 | 1013.7 |
| 20260508031503 | 48 | 0 | 0.0 | 0.0 | 0.00 | 0.70 | 0.00 | 100 | 1013.7 |
| 20260508031024 | 48 | 0 | 0.0 | 0.0 | 0.00 | 0.70 | 0.00 | 100 | 1014.0 |
| 20260508030503 | 48 | 0 | 0.0 | 0.0 | 0.00 | 0.70 | 0.00 | 100 | 1013.8 |
| 20260508030004 | 48 | 236 | 0.0 | 1.0 | 0.00 | 0.70 | 0.00 | 100 | 1013.9 |
| 20260508025503 | 48 | 236 | 0.0 | 1.0 | 0.00 | 0.70 | 0.00 | 100 | 1014.1 |
| 20260508025003 | 48 | 0 | 0.0 | 0.0 | 0.00 | 0.70 | 0.00 | 100 | 1014.0 |
| 20260508024503 | 48 | 0 | 0.0 | 0.0 | 0.00 | 0.70 | 0.00 | 100 | 1014.0 |
| 20260508024003 | 48 | 0 | 0.0 | 0.0 | 0.00 | 0.70 | 0.00 | 100 | 1014.0 |
| 20260508023503 | 48 | 0 | 0.0 | 0.0 | 0.00 | 0.70 | 0.00 | 100 | 1014.0 |
| 20260508023024 | 49 | 235 | 0.0 | 1.0 | 0.00 | 0.70 | 0.00 | 100 | 1014.0 |
| 20260508022503 | 49 | 234 | 0.0 | 1.0 | 0.00 | 0.70 | 0.00 | 100 | 1014.1 |
| 20260508022024 | 49 | 232 | 0.0 | 1.0 | 0.00 | 0.70 | 0.00 | 100 | 1013.9 |
| 20260508021504 | 49 | 0 | 0.0 | 0.0 | 0.00 | 0.70 | 0.00 | 100 | 1014.2 |
| 20260508021004 | 49 | 0 | 0.0 | 0.0 | 0.00 | 0.70 | 0.00 | 100 | 1014.3 |
| 20260508020524 | 49 | 0 | 0.0 | 0.0 | 0.00 | 0.70 | 0.00 | 100 | 1014.3 |
| 20260508020024 | 49 | 0 | 0.0 | 0.0 | 0.00 | 0.70 | 0.00 | 100 | 1014.2 |
| 20260508015503 | 49 | 230 | 0.0 | 1.0 | 0.00 | 0.70 | 0.00 | 100 | 1014.1 |
| 20260508015003 | 49 | 228 | 0.0 | 1.0 | 0.00 | 0.70 | 0.00 | 100 | 1014.2 |
| 20260508014524 | 49 | 229 | 0.0 | 1.0 | 0.00 | 0.70 | 0.00 | 100 | 1014.1 |
| 20260508014003 | 49 | 233 | 0.0 | 1.0 | 0.00 | 0.70 | 0.00 | 100 | 1014.2 |
| 20260508013503 | 49 | 236 | 0.0 | 1.0 | 0.00 | 0.70 | 0.00 | 100 | 1014.2 |
| 20260508013003 | 49 | 0 | 0.0 | 0.0 | 0.00 | 0.70 | 0.00 | 100 | 1014.3 |
| 20260508012524 | 49 | 0 | 0.0 | 0.0 | 0.00 | 0.70 | 0.00 | 100 | 1014.3 |
| 20260508012003 | 49 | 194 | 0.0 | 1.0 | 0.00 | 0.70 | 0.00 | 100 | 1014.2 |
| 20260508011503 | 49 | 194 | 0.0 | 1.0 | 0.00 | 0.70 | 0.00 | 100 | 1014.3 |
| 20260508011024 | 49 | 190 | 0.0 | 1.0 | 0.00 | 0.70 | 0.00 | 100 | 1014.2 |
| 20260508010503 | 48 | 238 | 0.0 | 1.0 | 0.00 | 0.70 | 0.00 | 100 | 1014.5 |
| 20260508010005 | 48 | 231 | 0.0 | 1.0 | 0.00 | 0.70 | 0.00 | 100 | 1014.3 |
| 20260508005505 | 48 | 228 | 0.0 | 1.0 | 0.00 | 0.70 | 0.00 | 100 | 1014.3 |
| 20260508005005 | 49 | 230 | 0.0 | 1.0 | 0.00 | 0.70 | 0.00 | 100 | 1014.5 |
| 20260508004505 | 49 | 233 | 0.0 | 1.0 | 0.00 | 0.70 | 0.00 | 100 | 1014.6 |
| 20260508004005 | 49 | 230 | 0.0 | 2.0 | 0.00 | 0.70 | 0.00 | 100 | 1014.6 |
| 20260508003505 | 49 | 237 | 0.0 | 2.0 | 0.00 | 0.70 | 0.00 | 100 | 1014.6 |
| 20260508003006 | 49 | 246 | 1.0 | 2.0 | 0.00 | 0.70 | 0.00 | 100 | 1014.9 |
| 20260508002505 | 49 | 247 | 1.0 | 2.0 | 0.00 | 0.70 | 0.00 | 100 | 1014.8 |
| 20260508002005 | 49 | 246 | 0.0 | 1.0 | 0.00 | 0.70 | 0.00 | 100 | 1014.8 |
| 20260508001505 | 49 | 198 | 0.0 | 1.0 | 0.00 | 0.70 | 0.00 | 100 | 1015.0 |
| 20260508001005 | 49 | 207 | 0.0 | 1.0 | 0.00 | 0.70 | 0.00 | 100 | 1014.9 |
| 20260508000505 | 49 | 199 | 0.0 | 2.0 | 0.00 | 0.70 | 0.00 | 100 | 1015.0 |
| 20260508000006 | 49 | 180 | 0.0 | 2.0 | 0.01 | 0.70 | 0.00 | 100 | 1015.2 |
| 20260507235505 | 49 | 159 | 0.0 | 3.0 | 0.01 | 0.70 | 0.70 | 100 | 1015.1 |
| 20260507235005 | 49 | 158 | 0.0 | 3.0 | 0.01 | 0.70 | 0.70 | 100 | 1015.3 |
| 20260507234505 | 49 | 230 | 0.0 | 1.0 | 0.02 | 0.70 | 0.70 | 100 | 1015.3 |
| 20260507234005 | 49 | 275 | 0.0 | 1.0 | 0.02 | 0.70 | 0.70 | 100 | 1015.3 |
| 20260507233505 | 49 | 243 | 0.0 | 2.0 | 0.03 | 0.70 | 0.70 | 100 | 1015.4 |
| 20260507233005 | 49 | 237 | 0.0 | 2.0 | 0.05 | 0.70 | 0.70 | 100 | 1015.4 |
| 20260507232505 | 49 | 238 | 0.0 | 1.0 | 0.07 | 0.70 | 0.70 | 100 | 1015.5 |
| 20260507232005 | 49 | 237 | 0.0 | 1.0 | 0.08 | 0.70 | 0.70 | 100 | 1015.6 |
| 20260507231526 | 49 | 230 | 0.0 | 1.0 | 0.09 | 0.70 | 0.70 | 100 | 1015.5 |
| 20260507231026 | 49 | 235 | 0.0 | 2.0 | 0.10 | 0.70 | 0.70 | 100 | 1015.7 |
| 20260507230505 | 49 | 234 | 0.0 | 2.0 | 0.11 | 0.70 | 0.70 | 100 | 1015.9 |
| 20260507230005 | 49 | 205 | 0.0 | 2.0 | 0.12 | 0.69 | 0.69 | 100 | 1015.8 |
| 20260507225526 | 49 | 202 | 0.0 | 2.0 | 0.12 | 0.69 | 0.69 | 100 | 1015.8 |
| 20260507225005 | 50 | 179 | 0.0 | 2.0 | 0.12 | 0.69 | 0.69 | 100 | 1015.9 |
| 20260507224505 | 50 | 158 | 1.0 | 3.0 | 0.12 | 0.68 | 0.68 | 100 | 1015.7 |
| 20260507224005 | 50 | 171 | 1.0 | 3.0 | 0.13 | 0.68 | 0.68 | 100 | 1015.9 |
| 20260507223505 | 50 | 150 | 1.0 | 4.0 | 0.14 | 0.67 | 0.67 | 100 | 1016.1 |
| 20260507223005 | 50 | 128 | 1.0 | 4.0 | 0.13 | 0.65 | 0.65 | 100 | 1015.8 |
| 20260507222526 | 50 | 104 | 1.0 | 3.0 | 0.12 | 0.63 | 0.63 | 100 | 1015.8 |
| 20260507222005 | 50 | 87 | 1.0 | 3.0 | 0.12 | 0.62 | 0.62 | 100 | 1015.6 |
| 20260507221505 | 50 | 106 | 0.0 | 2.0 | 0.12 | 0.61 | 0.61 | 100 | 1015.8 |
| 20260507221005 | 50 | 92 | 0.0 | 2.0 | 0.11 | 0.60 | 0.60 | 100 | 1015.7 |
| 20260507220526 | 50 | 224 | 0.0 | 2.0 | 0.11 | 0.59 | 0.59 | 100 | 1015.6 |
| 20260507220005 | 50 | 240 | 0.0 | 1.0 | 0.10 | 0.57 | 0.57 | 100 | 1015.8 |
| 20260507215505 | 50 | 246 | 0.0 | 1.0 | 0.11 | 0.57 | 0.57 | 100 | 1015.8 |
| 20260507215005 | 50 | 298 | 0.0 | 2.0 | 0.12 | 0.57 | 0.57 | 100 | 1015.6 |
| 20260507214505 | 50 | 113 | 1.0 | 4.0 | 0.13 | 0.56 | 0.56 | 100 | 1015.7 |
| 20260507214026 | 50 | 116 | 1.0 | 4.0 | 0.17 | 0.55 | 0.55 | 100 | 1015.5 |
| 20260507213505 | 50 | 18 | 1.0 | 6.0 | 0.21 | 0.53 | 0.53 | 100 | 1015.5 |
| 20260507213026 | 50 | 271 | 1.0 | 6.0 | 0.28 | 0.52 | 0.52 | 100 | 1015.6 |
| 20260507212505 | 50 | 249 | 0.0 | 3.0 | 0.38 | 0.51 | 0.51 | 100 | 1015.4 |
| 20260507212005 | 51 | 246 | 0.0 | 3.0 | 0.39 | 0.50 | 0.50 | 100 | 1015.5 |
| 20260507211505 | 51 | 205 | 0.0 | 1.0 | 0.46 | 0.49 | 0.49 | 100 | 1015.4 |
| 20260507211005 | 50 | 226 | 0.0 | 2.0 | 0.49 | 0.49 | 0.49 | 100 | 1015.3 |
| 20260507210505 | 50 | 230 | 0.0 | 2.0 | 0.48 | 0.48 | 0.48 | 100 | 1015.2 |
| 20260507210005 | 50 | 243 | 1.0 | 2.0 | 0.47 | 0.47 | 0.47 | 100 | 1015.1 |
| 20260507205505 | 49 | 247 | 1.0 | 2.0 | 0.46 | 0.46 | 0.46 | 100 | 1014.9 |
| 20260507205005 | 50 | 245 | 1.0 | 3.0 | 0.45 | 0.45 | 0.45 | 100 | 1014.9 |
| 20260507204505 | 49 | 250 | 1.0 | 3.0 | 0.43 | 0.43 | 0.43 | 97 | 1014.8 |
| 20260507204005 | 49 | 253 | 2.0 | 4.0 | 0.38 | 0.38 | 0.38 | 97 | 1014.7 |
| 20260507203505 | 49 | 249 | 2.0 | 4.0 | 0.32 | 0.32 | 0.32 | 97 | 1014.8 |
| 20260507203005 | 49 | 256 | 3.0 | 7.0 | 0.24 | 0.24 | 0.24 | 96 | 1014.5 |
| 20260507202505 | 50 | 256 | 3.0 | 9.0 | 0.13 | 0.13 | 0.14 | 95 | 1014.6 |
| 20260507202005 | 51 | 255 | 4.0 | 9.0 | 0.11 | 0.11 | 0.11 | 92 | 1014.1 |
| 20260507201505 | 53 | 260 | 3.0 | 7.0 | 0.03 | 0.03 | 0.03 | 87 | 1014.1 |
| 20260507201005 | 57 | 291 | 4.0 | 9.0 | 0.00 | 0.00 | 0.00 | 71 | 1013.6 |
| 20260507200526 | 57 | 298 | 5.0 | 9.0 | 0.00 | 0.00 | 0.00 | 65 | 1013.5 |
| 20260507200005 | 58 | 284 | 3.0 | 9.0 | 0.00 | 0.00 | 0.00 | 66 | 1013.2 |
| 20260507195505 | 59 | 255 | 2.0 | 6.0 | 0.00 | 0.00 | 0.00 | 68 | 1013.4 |
| 20260507195005 | 59 | 253 | 2.0 | 4.0 | 0.00 | 0.00 | 0.00 | 68 | 1013.1 |
| 20260507194505 | 59 | 252 | 2.0 | 7.0 | 0.00 | 0.00 | 0.00 | 70 | 1013.1 |
| 20260507194005 | 59 | 270 | 3.0 | 7.0 | 0.00 | 0.00 | 0.00 | 70 | 1013.2 |
| 20260507193505 | 59 | 317 | 4.0 | 13.0 | 0.00 | 0.00 | 0.00 | 70 | 1013.0 |
| 20260507193005 | 60 | 320 | 6.0 | 13.0 | 0.00 | 0.00 | 0.00 | 70 | 1013.1 |
| 20260507192505 | 60 | 298 | 5.0 | 9.0 | 0.00 | 0.00 | 0.00 | 71 | 1012.7 |
| 20260507192005 | 60 | 302 | 5.0 | 13.0 | 0.00 | 0.00 | 0.00 | 70 | 1012.7 |
| 20260507191526 | 60 | 318 | 4.0 | 13.0 | 0.00 | 0.00 | 0.00 | 68 | 1012.6 |
| 20260507191005 | 61 | 311 | 4.0 | 11.0 | 0.00 | 0.00 | 0.00 | 66 | 1012.4 |
| 20260507190505 | 61 | 284 | 3.0 | 11.0 | 0.00 | 0.00 | 0.00 | 63 | 1012.5 |
| 20260507190006 | 61 | 279 | 3.0 | 8.0 | 0.00 | 0.00 | 0.00 | 62 | 1012.2 |
| 20260507185525 | 61 | 282 | 3.0 | 7.0 | 0.00 | 0.00 | 0.00 | 62 | 1012.3 |
| 20260507185004 | 61 | 272 | 2.0 | 6.0 | 0.00 | 0.00 | 0.00 | 63 | 1012.2 |
| 20260507184505 | 61 | 265 | 2.0 | 6.0 | 0.00 | 0.00 | 0.00 | 62 | 1012.2 |
| 20260507184004 | 61 | 258 | 1.0 | 2.0 | 0.00 | 0.00 | 0.00 | 60 | 1012.1 |
| 20260507183505 | 62 | 203 | 0.0 | 2.0 | 0.00 | 0.00 | 0.00 | 57 | 1011.9 |
| 20260507183005 | 62 | 133 | 1.0 | 4.0 | 0.00 | 0.00 | 0.00 | 54 | 1012.0 |
| 20260507182505 | 63 | 96 | 1.0 | 4.0 | 0.00 | 0.00 | 0.00 | 51 | 1011.9 |
| 20260507182026 | 63 | 141 | 1.0 | 3.0 | 0.00 | 0.00 | 0.00 | 53 | 1011.9 |
| 20260507181525 | 63 | 59 | 1.0 | 4.0 | 0.00 | 0.00 | 0.00 | 53 | 1011.6 |
| 20260507181005 | 63 | 308 | 1.0 | 7.0 | 0.00 | 0.00 | 0.00 | 53 | 1011.7 |
| 20260507180505 | 63 | 311 | 3.0 | 11.0 | 0.00 | 0.00 | 0.00 | 55 | 1011.7 |
| 20260507180026 | 64 | 315 | 4.0 | 11.0 | 0.00 | 0.00 | 0.00 | 55 | 1011.6 |
| 20260507175505 | 65 | 291 | 3.0 | 8.0 | 0.00 | 0.00 | 0.00 | 59 | 1011.6 |
| 20260507175004 | 65 | 279 | 2.0 | 6.0 | 0.00 | 0.00 | 0.00 | 61 | 1011.4 |
| 20260507174505 | 66 | 261 | 1.0 | 6.0 | 0.00 | 0.00 | 0.00 | 59 | 1011.7 |
| 20260507174004 | 66 | 277 | 2.0 | 8.0 | 0.00 | 0.00 | 0.00 | 56 | 1011.4 |
| 20260507173504 | 65 | 279 | 2.0 | 8.0 | 0.00 | 0.00 | 0.00 | 55 | 1011.4 |
| 20260507173005 | 65 | 253 | 1.0 | 4.0 | 0.00 | 0.00 | 0.00 | 54 | 1011.4 |
| 20260507172505 | 66 | 235 | 1.0 | 4.0 | 0.00 | 0.00 | 0.00 | 52 | 1011.3 |
| 20260507172005 | 67 | 65 | 1.0 | 4.0 | 0.00 | 0.00 | 0.00 | 53 | 1011.2 |
| 20260507171505 | 66 | 43 | 1.0 | 4.0 | 0.00 | 0.00 | 0.00 | 50 | 1011.2 |
| 20260507171005 | 67 | 119 | 1.0 | 4.0 | 0.00 | 0.00 | 0.00 | 50 | 1011.0 |
| 20260507170505 | 67 | 206 | 1.0 | 4.0 | 0.00 | 0.00 | 0.00 | 50 | 1010.9 |
| 20260507170005 | 65 | 232 | 0.0 | 2.0 | 0.00 | 0.00 | 0.00 | 53 | 1010.8 |
| 20260507165505 | 65 | 251 | 1.0 | 4.0 | 0.00 | 0.00 | 0.00 | 50 | 1011.0 |
| 20260507165004 | 65 | 263 | 1.0 | 4.0 | 0.00 | 0.00 | 0.00 | 51 | 1010.8 |
| 20260507164504 | 65 | 91 | 1.0 | 4.0 | 0.00 | 0.00 | 0.00 | 54 | 1010.8 |
| 20260507164004 | 65 | 109 | 1.0 | 4.0 | 0.00 | 0.00 | 0.00 | 53 | 1010.8 |
| 20260507163504 | 65 | 66 | 1.0 | 4.0 | 0.00 | 0.00 | 0.00 | 51 | 1010.9 |
| 20260507163005 | 66 | 57 | 1.0 | 4.0 | 0.00 | 0.00 | 0.00 | 50 | 1010.9 |
| 20260507162525 | 66 | 64 | 1.0 | 4.0 | 0.00 | 0.00 | 0.00 | 51 | 1010.6 |
| 20260507162005 | 67 | 60 | 1.0 | 4.0 | 0.00 | 0.00 | 0.00 | 52 | 1010.8 |
| 20260507161504 | 66 | 65 | 0.0 | 2.0 | 0.00 | 0.00 | 0.00 | 54 | 1010.7 |
| 20260507161004 | 65 | 59 | 1.0 | 3.0 | 0.00 | 0.00 | 0.00 | 51 | 1010.6 |
| 20260507160514 | 65 | 52 | 1.0 | 3.0 | 0.00 | 0.00 | 0.00 | 51 | 1010.8 |
| 20260507160008 | 65 | 52 | 1.0 | 4.0 | 0.00 | 0.00 | 0.00 | 53 | 1010.6 |
| 20260507155505 | 65 | 55 | 1.0 | 4.0 | 0.00 | 0.00 | 0.00 | 51 | 1010.8 |
| 20260507155026 | 66 | 73 | 1.0 | 4.0 | 0.00 | 0.00 | 0.00 | 50 | 1010.8 |
| 20260507154505 | 67 | 66 | 1.0 | 4.0 | 0.00 | 0.00 | 0.00 | 47 | 1010.5 |
| 20260507154005 | 67 | 47 | 1.0 | 4.0 | 0.00 | 0.00 | 0.00 | 48 | 1010.6 |
| 20260507153505 | 67 | 59 | 1.0 | 3.0 | 0.00 | 0.00 | 0.00 | 47 | 1010.5 |
| 20260507153004 | 67 | 59 | 1.0 | 4.0 | 0.00 | 0.00 | 0.00 | 45 | 1010.7 |
| 20260507152504 | 69 | 29 | 1.0 | 4.0 | 0.00 | 0.00 | 0.00 | 44 | 1010.7 |
| 20260507152025 | 71 | 314 | 1.0 | 4.0 | 0.00 | 0.00 | 0.00 | 44 | 1010.6 |
| 20260507151505 | 71 | 359 | 2.0 | 8.0 | 0.00 | 0.00 | 0.00 | 44 | 1010.9 |
| 20260507151025 | 69 | 37 | 2.0 | 8.0 | 0.00 | 0.00 | 0.00 | 41 | 1011.0 |
| 20260507150504 | 70 | 53 | 2.0 | 8.0 | 0.00 | 0.00 | 0.00 | 42 | 1011.0 |
| 20260507150005 | 69 | 50 | 2.0 | 8.0 | 0.00 | 0.00 | 0.00 | 44 | 1011.0 |
| 20260507145504 | 69 | 43 | 2.0 | 7.0 | 0.00 | 0.00 | 0.00 | 43 | 1011.2 |
| 20260507145005 | 69 | 32 | 2.0 | 7.0 | 0.00 | 0.00 | 0.00 | 44 | 1011.0 |
| 20260507144505 | 71 | 31 | 2.0 | 9.0 | 0.00 | 0.00 | 0.00 | 46 | 1011.2 |
| 20260507144005 | 69 | 41 | 3.0 | 9.0 | 0.00 | 0.00 | 0.00 | 43 | 1011.2 |
| 20260507143504 | 69 | 50 | 2.0 | 8.0 | 0.00 | 0.00 | 0.00 | 44 | 1011.4 |
| 20260507143005 | 69 | 240 | 1.0 | 6.0 | 0.00 | 0.00 | 0.00 | 46 | 1011.4 |
| 20260507142525 | 70 | 11 | 2.0 | 7.0 | 0.00 | 0.00 | 0.00 | 45 | 1011.4 |
| 20260507142004 | 69 | 31 | 2.0 | 7.0 | 0.00 | 0.00 | 0.00 | 46 | 1011.3 |
| 20260507141526 | 68 | 357 | 2.0 | 8.0 | 0.00 | 0.00 | 0.00 | 43 | 1011.6 |
| 20260507141006 | 69 | 314 | 3.0 | 8.0 | 0.00 | 0.00 | 0.00 | 46 | 1011.6 |
| 20260507140504 | 69 | 312 | 3.0 | 8.0 | 0.00 | 0.00 | 0.00 | 46 | 1011.4 |
| 20260507140006 | 69 | 27 | 3.0 | 10.0 | 0.00 | 0.00 | 0.00 | 46 | 1011.6 |
| 20260507135504 | 68 | 31 | 3.0 | 10.0 | 0.00 | 0.00 | 0.00 | 49 | 1011.4 |
| 20260507135004 | 69 | 11 | 3.0 | 11.0 | 0.00 | 0.00 | 0.00 | 46 | 1011.6 |
| 20260507134504 | 69 | 351 | 3.0 | 11.0 | 0.00 | 0.00 | 0.00 | 49 | 1011.8 |
| 20260507134004 | 70 | 31 | 3.0 | 10.0 | 0.00 | 0.00 | 0.00 | 48 | 1011.8 |
| 20260507133504 | 69 | 50 | 3.0 | 11.0 | 0.00 | 0.00 | 0.00 | 49 | 1012.0 |
| 20260507133004 | 69 | 48 | 3.0 | 11.0 | 0.00 | 0.00 | 0.00 | 49 | 1012.0 |
| 20260507132504 | 69 | 48 | 2.0 | 9.0 | 0.00 | 0.00 | 0.00 | 50 | 1011.9 |
| 20260507132004 | 69 | 45 | 3.0 | 9.0 | 0.00 | 0.00 | 0.00 | 46 | 1011.9 |
| 20260507131504 | 68 | 45 | 3.0 | 8.0 | 0.00 | 0.00 | 0.00 | 46 | 1012.0 |
| 20260507131004 | 68 | 40 | 2.0 | 8.0 | 0.00 | 0.00 | 0.00 | 45 | 1012.2 |